Time,TemperatureF,DewpointF,PressureIn,WindDirection,WindDirectionDegrees,WindSpeedMPH,WindSpeedGustMPH,Humidity,HourlyPrecipIn,Conditions,Clouds,dailyrainin,SoftwareType,DateUTC
2013-05-03 00:04:00,64.4,59.8,30.05,ESE,117,0.0,0.0,85,0.00,,---,0.00,VWS V14.00,2013-05-03 05:04:00,
2013-05-03 00:09:00,64.2,59.9,30.05,ESE,117,1.0,1.0,86,0.00,,---,0.00,VWS V14.00,2013-05-03 05:09:00,
2013-05-03 00:15:00,64.4,59.8,30.05,ESE,121,1.0,1.0,85,0.00,,---,0.00,VWS V14.00,2013-05-03 05:15:00,
2013-05-03 00:20:00,64.6,60.0,30.05,ESE,123,1.0,2.0,85,0.00,,---,0.00,VWS V14.00,2013-05-03 05:20:00,
2013-05-03 00:25:00,64.7,60.1,30.04,ESE,122,1.0,1.0,85,0.00,,---,0.00,VWS V14.00,2013-05-03 05:25:00,
2013-05-03 00:30:00,64.7,60.1,30.04,ESE,123,1.0,1.0,85,0.00,,---,0.00,VWS V14.00,2013-05-03 05:30:00,
2013-05-03 00:35:00,64.7,60.1,30.04,ESE,122,1.0,1.0,85,0.00,,---,0.00,VWS V14.00,2013-05-03 05:35:00,
2013-05-03 00:40:00,64.7,60.1,30.04,SE,137,1.0,2.0,85,0.00,,---,0.00,VWS V14.00,2013-05-03 05:40:00,
2013-05-03 00:45:00,64.7,60.1,30.04,SE,131,0.0,1.0,85,0.00,,---,0.00,VWS V14.00,2013-05-03 05:45:00,
2013-05-03 00:50:00,64.7,60.1,30.04,SE,131,0.0,0.0,85,0.00,,---,0.00,VWS V14.00,2013-05-03 05:50:00,
2013-05-03 00:55:00,64.6,60.0,30.04,SE,131,0.0,0.0,85,0.00,,---,0.00,VWS V14.00,2013-05-03 05:55:00,
2013-05-03 01:00:00,64.6,60.3,30.04,SE,131,0.0,0.0,86,0.00,,---,0.00,VWS V14.00,2013-05-03 06:00:00,
2013-05-03 01:05:00,64.6,60.3,30.03,SE,131,0.0,0.0,86,0.00,,---,0.00,VWS V14.00,2013-05-03 06:05:00,
2013-05-03 01:10:00,64.6,60.3,30.03,SE,131,0.0,0.0,86,0.00,,---,0.00,VWS V14.00,2013-05-03 06:10:00,
2013-05-03 01:15:00,64.6,60.3,30.03,ESE,113,0.0,0.0,86,0.00,,---,0.00,VWS V14.00,2013-05-03 06:15:00,
2013-05-03 01:21:00,64.5,60.5,30.03,ESE,113,0.0,1.0,87,0.00,,---,0.00,VWS V14.00,2013-05-03 06:21:00,
2013-05-03 01:26:00,64.4,60.5,30.03,ESE,113,0.0,0.0,87,0.00,,---,0.00,VWS V14.00,2013-05-03 06:26:00,
2013-05-03 01:31:00,64.1,60.5,30.02,ESE,113,0.0,0.0,88,0.00,,---,0.00,VWS V14.00,2013-05-03 06:31:00,
2013-05-03 01:36:00,63.7,60.1,30.02,ESE,113,0.0,0.0,88,0.00,,---,0.00,VWS V14.00,2013-05-03 06:36:00,
2013-05-03 01:41:00,63.4,59.8,30.02,ESE,113,0.0,0.0,88,0.00,,---,0.00,VWS V14.00,2013-05-03 06:41:00,
2013-05-03 01:46:00,63.0,59.7,30.02,ESE,113,0.0,0.0,89,0.00,,---,0.00,VWS V14.00,2013-05-03 06:46:00,
2013-05-03 01:51:00,63.0,60.0,30.01,ESE,113,0.0,0.0,90,0.00,,---,0.00,VWS V14.00,2013-05-03 06:51:00,
2013-05-03 01:56:00,63.0,60.3,30.01,ESE,113,0.0,0.0,91,0.00,,---,0.00,VWS V14.00,2013-05-03 06:56:00,
2013-05-03 02:01:00,63.0,60.0,30.01,ESE,113,0.0,0.0,90,0.00,,---,0.00,VWS V14.00,2013-05-03 07:01:00,
2013-05-03 02:06:00,63.0,60.0,30.01,ESE,113,0.0,0.0,90,0.00,,---,0.00,VWS V14.00,2013-05-03 07:06:00,
2013-05-03 02:12:00,63.1,60.1,30.00,ESE,113,1.0,1.0,90,0.00,,---,0.00,VWS V14.00,2013-05-03 07:12:00,
2013-05-03 02:17:00,63.2,60.2,30.00,East,83,0.0,2.0,90,0.00,,---,0.00,VWS V14.00,2013-05-03 07:17:00,
2013-05-03 02:22:00,63.2,59.9,30.00,East,83,0.0,1.0,89,0.00,,---,0.00,VWS V14.00,2013-05-03 07:22:00,
2013-05-03 02:27:00,62.9,59.6,30.00,East,83,0.0,0.0,89,0.00,,---,0.00,VWS V14.00,2013-05-03 07:27:00,
2013-05-03 02:32:00,63.0,59.7,30.00,ENE,69,0.0,2.0,89,0.00,,---,0.00,VWS V14.00,2013-05-03 07:32:00,
2013-05-03 02:37:00,63.3,59.7,29.99,ENE,75,0.0,2.0,88,0.00,,---,0.00,VWS V14.00,2013-05-03 07:37:00,
2013-05-03 02:42:00,63.4,59.5,29.99,ENE,73,0.0,1.0,87,0.00,,---,0.00,VWS V14.00,2013-05-03 07:42:00,
2013-05-03 02:47:00,63.4,59.5,29.99,ESE,108,0.0,1.0,87,0.00,,---,0.00,VWS V14.00,2013-05-03 07:47:00,
2013-05-03 02:52:00,63.6,59.3,29.99,SSE,160,2.0,3.0,86,0.00,,---,0.00,VWS V14.00,2013-05-03 07:52:00,
2013-05-03 02:57:00,63.5,59.2,29.99,ESE,111,5.0,8.0,86,0.00,,---,0.00,VWS V14.00,2013-05-03 07:57:00,
2013-05-03 03:02:00,63.6,59.0,29.99,SE,143,3.0,5.0,85,0.00,,---,0.00,VWS V14.00,2013-05-03 08:02:00,
2013-05-03 03:07:00,63.5,58.9,29.99,ESE,122,2.0,4.0,85,0.00,,---,0.00,VWS V14.00,2013-05-03 08:07:00,
2013-05-03 03:13:00,63.3,59.0,29.99,SE,124,1.0,2.0,86,0.00,,---,0.00,VWS V14.00,2013-05-03 08:13:00,
2013-05-03 03:18:00,63.3,59.0,29.99,ESE,120,1.0,2.0,86,0.00,,---,0.00,VWS V14.00,2013-05-03 08:18:00,
2013-05-03 03:23:00,63.5,58.9,29.99,East,88,4.0,5.0,85,0.00,,---,0.00,VWS V14.00,2013-05-03 08:23:00,
2013-05-03 03:28:00,63.6,59.0,29.99,ESE,113,1.0,6.0,85,0.00,,---,0.00,VWS V14.00,2013-05-03 08:28:00,
2013-05-03 03:33:00,63.5,58.9,29.99,East,88,1.0,4.0,85,0.00,,---,0.00,VWS V14.00,2013-05-03 08:33:00,
2013-05-03 03:38:00,63.3,59.0,29.99,East,86,3.0,3.0,86,0.00,,---,0.00,VWS V14.00,2013-05-03 08:38:00,
2013-05-03 03:43:00,63.3,58.7,29.99,East,86,2.0,7.0,85,0.00,,---,0.00,VWS V14.00,2013-05-03 08:43:00,
2013-05-03 03:49:00,63.2,58.6,29.99,SE,127,4.0,5.0,85,0.00,,---,0.00,VWS V14.00,2013-05-03 08:49:00,
2013-05-03 03:54:00,63.1,58.5,29.99,East,82,2.0,5.0,85,0.00,,---,0.00,VWS V14.00,2013-05-03 08:54:00,
2013-05-03 03:59:00,62.8,58.2,29.98,East,89,2.0,4.0,85,0.00,,---,0.00,VWS V14.00,2013-05-03 08:59:00,
2013-05-03 04:04:00,62.7,58.1,29.98,SE,132,2.0,5.0,85,0.00,,---,0.00,VWS V14.00,2013-05-03 09:04:00,
2013-05-03 04:09:00,62.7,58.1,29.98,SE,133,3.0,4.0,85,0.00,,---,0.00,VWS V14.00,2013-05-03 09:09:00,
2013-05-03 04:14:00,62.7,57.8,29.98,ESE,103,2.0,4.0,84,0.00,,---,0.00,VWS V14.00,2013-05-03 09:14:00,
2013-05-03 04:19:00,62.4,57.8,29.98,ESE,113,3.0,3.0,85,0.00,,---,0.00,VWS V14.00,2013-05-03 09:19:00,
2013-05-03 04:24:00,62.4,57.8,29.98,SE,134,4.0,6.0,85,0.01,,---,0.01,VWS V14.00,2013-05-03 09:24:00,
2013-05-03 04:29:00,62.5,57.6,29.98,East,101,3.0,6.0,84,0.01,,---,0.01,VWS V14.00,2013-05-03 09:29:00,
2013-05-03 04:34:00,62.5,57.6,29.98,ESE,121,3.0,6.0,84,0.01,,---,0.01,VWS V14.00,2013-05-03 09:34:00,
2013-05-03 04:39:00,62.5,57.6,29.98,ESE,122,3.0,4.0,84,0.01,,---,0.01,VWS V14.00,2013-05-03 09:39:00,
2013-05-03 04:44:00,62.5,57.3,29.98,ESE,108,1.0,7.0,83,0.01,,---,0.01,VWS V14.00,2013-05-03 09:44:00,
2013-05-03 04:49:00,62.5,57.3,29.98,SSE,152,3.0,6.0,83,0.01,,---,0.01,VWS V14.00,2013-05-03 09:49:00,
2013-05-03 04:54:00,62.4,57.2,29.98,SE,127,3.0,7.0,83,0.01,,---,0.01,VWS V14.00,2013-05-03 09:54:00,
2013-05-03 04:59:00,62.4,57.2,29.98,ESE,115,3.0,6.0,83,0.01,,---,0.01,VWS V14.00,2013-05-03 09:59:00,
2013-05-03 05:04:00,62.3,56.7,29.98,East,86,4.0,4.0,82,0.01,,---,0.01,VWS V14.00,2013-05-03 10:04:00,
2013-05-03 05:09:00,62.3,56.7,29.98,ESE,107,6.0,6.0,82,0.01,,---,0.01,VWS V14.00,2013-05-03 10:09:00,
2013-05-03 05:15:00,62.3,56.7,29.98,East,84,3.0,4.0,82,0.01,,---,0.01,VWS V14.00,2013-05-03 10:15:00,
2013-05-03 05:20:00,62.2,56.6,29.98,East,99,6.0,6.0,82,0.01,,---,0.01,VWS V14.00,2013-05-03 10:20:00,
2013-05-03 05:25:00,62.1,56.5,29.98,ESE,106,5.0,5.0,82,0.00,,---,0.01,VWS V14.00,2013-05-03 10:25:00,
2013-05-03 05:30:00,62.1,56.5,29.98,SE,133,4.0,6.0,82,0.00,,---,0.01,VWS V14.00,2013-05-03 10:30:00,
2013-05-03 05:35:00,62.1,56.9,29.98,ESE,110,4.0,5.0,83,0.00,,---,0.01,VWS V14.00,2013-05-03 10:35:00,
2013-05-03 05:40:00,62.2,56.6,29.98,East,82,3.0,4.0,82,0.00,,---,0.01,VWS V14.00,2013-05-03 10:40:00,
2013-05-03 05:45:00,62.4,56.8,29.98,SSE,150,5.0,7.0,82,0.00,,---,0.01,VWS V14.00,2013-05-03 10:45:00,
2013-05-03 05:50:00,62.4,56.8,29.98,ENE,72,3.0,6.0,82,0.00,,---,0.01,VWS V14.00,2013-05-03 10:50:00,
2013-05-03 05:55:00,62.4,56.8,29.98,ESE,111,4.0,6.0,82,0.00,,---,0.01,VWS V14.00,2013-05-03 10:55:00,
2013-05-03 06:00:00,62.4,56.8,29.98,ESE,117,4.0,8.0,82,0.00,,---,0.01,VWS V14.00,2013-05-03 11:00:00,
2013-05-03 06:05:00,62.4,56.8,29.98,ESE,115,3.0,5.0,82,0.00,,---,0.01,VWS V14.00,2013-05-03 11:05:00,
2013-05-03 06:10:00,62.3,56.7,29.98,SE,127,6.0,6.0,82,0.00,,---,0.01,VWS V14.00,2013-05-03 11:10:00,
2013-05-03 06:16:00,62.2,57.0,29.98,SE,124,4.0,6.0,83,0.00,,---,0.01,VWS V14.00,2013-05-03 11:16:00,
2013-05-03 06:21:00,62.2,56.6,29.98,ESE,102,3.0,6.0,82,0.00,,---,0.01,VWS V14.00,2013-05-03 11:21:00,
2013-05-03 06:26:00,62.2,57.0,29.98,East,84,6.0,7.0,83,0.00,,---,0.01,VWS V14.00,2013-05-03 11:26:00,
2013-05-03 06:31:00,62.2,56.6,29.98,ESE,117,5.0,7.0,82,0.00,,---,0.01,VWS V14.00,2013-05-03 11:31:00,
2013-05-03 06:36:00,62.3,56.7,29.98,SE,133,4.0,7.0,82,0.00,,---,0.01,VWS V14.00,2013-05-03 11:36:00,
2013-05-03 06:41:00,62.3,56.7,29.98,ESE,116,4.0,8.0,82,0.00,,---,0.01,VWS V14.00,2013-05-03 11:41:00,
2013-05-03 06:46:00,62.3,56.7,29.98,SE,127,5.0,7.0,82,0.00,,---,0.01,VWS V14.00,2013-05-03 11:46:00,
2013-05-03 06:52:00,62.3,56.7,29.98,SE,135,3.0,6.0,82,0.00,,---,0.01,VWS V14.00,2013-05-03 11:52:00,
2013-05-03 06:57:00,62.4,56.8,29.98,SE,131,2.0,8.0,82,0.00,,---,0.01,VWS V14.00,2013-05-03 11:57:00,
2013-05-03 07:02:00,62.4,56.8,29.98,East,92,7.0,7.0,82,0.00,,---,0.01,VWS V14.00,2013-05-03 12:02:00,
2013-05-03 07:07:00,62.6,57.0,29.98,SE,134,3.0,9.0,82,0.00,,---,0.01,VWS V14.00,2013-05-03 12:07:00,
2013-05-03 07:12:00,62.7,57.1,29.98,SSE,147,5.0,8.0,82,0.00,,---,0.01,VWS V14.00,2013-05-03 12:12:00,
2013-05-03 07:17:00,62.8,57.2,29.98,ESE,116,5.0,8.0,82,0.00,,---,0.01,VWS V14.00,2013-05-03 12:17:00,
2013-05-03 07:22:00,63.0,57.4,29.98,SSE,154,4.0,9.0,82,0.00,,---,0.01,VWS V14.00,2013-05-03 12:22:00,
2013-05-03 07:27:00,63.1,57.2,29.98,SSE,155,6.0,12.0,81,0.00,,---,0.01,VWS V14.00,2013-05-03 12:27:00,
2013-05-03 07:32:00,63.2,57.3,29.98,SE,143,7.0,11.0,81,0.00,,---,0.01,VWS V14.00,2013-05-03 12:32:00,
2013-05-03 07:38:00,63.2,57.3,29.98,SE,129,6.0,11.0,81,0.00,,---,0.01,VWS V14.00,2013-05-03 12:38:00,
2013-05-03 07:43:00,63.2,57.3,29.97,ESE,122,6.0,10.0,81,0.00,,---,0.01,VWS V14.00,2013-05-03 12:43:00,
2013-05-03 07:48:00,63.3,57.4,29.97,East,84,5.0,10.0,81,0.00,,---,0.01,VWS V14.00,2013-05-03 12:48:00,
2013-05-03 07:53:00,63.4,57.1,29.97,East,82,6.0,11.0,80,0.00,,---,0.01,VWS V14.00,2013-05-03 12:53:00,
2013-05-03 07:58:00,63.6,57.7,29.97,East,96,15.0,16.0,81,0.00,,---,0.01,VWS V14.00,2013-05-03 12:58:00,
2013-05-03 08:03:00,63.8,57.2,29.97,ESE,118,10.0,12.0,79,0.00,,---,0.01,VWS V14.00,2013-05-03 13:03:00,
2013-05-03 08:08:00,64.1,57.8,29.97,SE,130,8.0,11.0,80,0.00,,---,0.01,VWS V14.00,2013-05-03 13:08:00,
2013-05-03 08:13:00,64.5,57.5,29.97,ENE,78,13.0,13.0,78,0.00,,---,0.01,VWS V14.00,2013-05-03 13:13:00,
2013-05-03 08:18:00,64.8,58.1,29.97,SSE,164,6.0,14.0,79,0.00,,---,0.01,VWS V14.00,2013-05-03 13:18:00,
2013-05-03 08:23:00,65.3,57.9,29.97,ESE,103,15.0,15.0,77,0.00,,---,0.01,VWS V14.00,2013-05-03 13:23:00,
2013-05-03 08:28:00,65.6,58.2,29.97,ENE,62,6.0,12.0,77,0.00,,---,0.01,VWS V14.00,2013-05-03 13:28:00,
2013-05-03 08:33:00,65.6,57.8,29.97,East,86,12.0,14.0,76,0.00,,---,0.01,VWS V14.00,2013-05-03 13:33:00,
2013-05-03 08:39:00,65.3,57.2,29.97,SE,138,13.0,20.0,75,0.00,,---,0.01,VWS V14.00,2013-05-03 13:39:00,
2013-05-03 08:44:00,65.1,57.0,29.97,ESE,108,10.0,20.0,75,0.00,,---,0.01,VWS V14.00,2013-05-03 13:44:00,
2013-05-03 08:49:00,65.0,56.5,29.97,ESE,106,7.0,17.0,74,0.00,,---,0.01,VWS V14.00,2013-05-03 13:49:00,
2013-05-03 08:54:00,64.9,56.4,29.97,SSE,149,8.0,14.0,74,0.00,,---,0.01,VWS V14.00,2013-05-03 13:54:00,
2013-05-03 08:59:00,64.8,56.3,29.96,ESE,112,15.0,21.0,74,0.00,,---,0.01,VWS V14.00,2013-05-03 13:59:00,
2013-05-03 09:04:00,64.8,56.7,29.96,ESE,102,12.0,17.0,75,0.00,,---,0.01,VWS V14.00,2013-05-03 14:04:00,
2013-05-03 09:09:00,64.9,56.4,29.96,SE,142,10.0,15.0,74,0.00,,---,0.01,VWS V14.00,2013-05-03 14:09:00,
2013-05-03 09:14:00,65.0,57.3,29.95,SE,132,10.0,14.0,76,0.00,,---,0.01,VWS V14.00,2013-05-03 14:14:00,
2013-05-03 09:19:00,65.2,57.1,29.95,East,92,12.0,16.0,75,0.00,,---,0.01,VWS V14.00,2013-05-03 14:19:00,
2013-05-03 09:24:00,65.3,57.2,29.95,SE,146,6.0,18.0,75,0.00,,---,0.01,VWS V14.00,2013-05-03 14:24:00,
2013-05-03 09:29:00,65.5,57.0,29.95,NE,51,13.0,16.0,74,0.00,,---,0.01,VWS V14.00,2013-05-03 14:29:00,
2013-05-03 09:34:00,65.7,56.8,29.95,SE,142,6.0,14.0,73,0.00,,---,0.01,VWS V14.00,2013-05-03 14:34:00,
2013-05-03 09:39:00,65.9,57.4,29.95,East,84,8.0,13.0,74,0.00,,---,0.01,VWS V14.00,2013-05-03 14:39:00,
2013-05-03 09:44:00,66.0,57.1,29.95,ESE,123,10.0,16.0,73,0.00,,---,0.01,VWS V14.00,2013-05-03 14:44:00,
2013-05-03 09:49:00,66.2,57.7,29.95,ESE,123,7.0,16.0,74,0.00,,---,0.01,VWS V14.00,2013-05-03 14:49:00,
2013-05-03 09:54:00,66.4,56.7,29.94,ESE,103,13.0,15.0,71,0.00,,---,0.01,VWS V14.00,2013-05-03 14:54:00,
2013-05-03 09:59:00,66.5,56.8,29.94,ESE,120,12.0,20.0,71,0.00,,---,0.01,VWS V14.00,2013-05-03 14:59:00,
2013-05-03 10:04:00,66.6,56.9,29.94,SE,131,13.0,17.0,71,0.00,,---,0.01,VWS V14.00,2013-05-03 15:04:00,
2013-05-03 10:09:00,66.7,57.4,29.94,ESE,122,11.0,11.0,72,0.00,,---,0.01,VWS V14.00,2013-05-03 15:09:00,
2013-05-03 10:15:00,67.1,58.2,29.94,East,91,6.0,9.0,73,0.00,,---,0.01,VWS V14.00,2013-05-03 15:15:00,
2013-05-03 10:20:00,67.3,58.0,29.94,ESE,122,6.0,10.0,72,0.00,,---,0.01,VWS V14.00,2013-05-03 15:20:00,
2013-05-03 10:25:00,67.3,57.2,29.94,East,95,10.0,13.0,70,0.00,,---,0.01,VWS V14.00,2013-05-03 15:25:00,
2013-05-03 10:30:00,67.4,57.7,29.94,SE,131,6.0,11.0,71,0.00,,---,0.01,VWS V14.00,2013-05-03 15:30:00,
2013-05-03 10:35:00,67.6,57.5,29.94,ESE,113,9.0,16.0,70,0.00,,---,0.01,VWS V14.00,2013-05-03 15:35:00,
2013-05-03 10:40:00,67.8,57.3,29.94,East,80,10.0,13.0,69,0.00,,---,0.01,VWS V14.00,2013-05-03 15:40:00,
2013-05-03 10:45:00,68.0,58.3,29.94,ESE,123,9.0,10.0,71,0.00,,---,0.01,VWS V14.00,2013-05-03 15:45:00,
2013-05-03 10:50:00,68.1,57.6,29.93,ESE,103,9.0,17.0,69,0.00,,---,0.01,VWS V14.00,2013-05-03 15:50:00,
2013-05-03 10:56:00,68.5,59.1,29.93,East,99,8.0,10.0,72,0.00,,---,0.01,VWS V14.00,2013-05-03 15:56:00,
2013-05-03 11:01:00,68.6,58.0,29.93,ESE,122,12.0,13.0,69,0.00,,---,0.01,VWS V14.00,2013-05-03 16:01:00,
2013-05-03 11:06:00,68.9,58.3,29.93,East,95,6.0,14.0,69,0.00,,---,0.01,VWS V14.00,2013-05-03 16:06:00,
2013-05-03 11:11:00,69.6,57.8,29.93,SE,143,12.0,16.0,66,0.00,,---,0.01,VWS V14.00,2013-05-03 16:11:00,
2013-05-03 11:16:00,70.0,57.7,29.93,SSE,147,11.0,17.0,65,0.00,,---,0.01,VWS V14.00,2013-05-03 16:16:00,
2013-05-03 11:21:00,70.4,57.7,29.92,SE,144,12.0,19.0,64,0.00,,---,0.01,VWS V14.00,2013-05-03 16:21:00,
2013-05-03 11:26:00,70.8,59.3,29.92,ESE,105,11.0,17.0,67,0.00,,---,0.01,VWS V14.00,2013-05-03 16:26:00,
2013-05-03 11:31:00,71.3,58.1,29.92,ESE,102,12.0,19.0,63,0.00,,---,0.01,VWS V14.00,2013-05-03 16:31:00,
2013-05-03 11:36:00,71.6,58.8,29.92,East,98,12.0,16.0,64,0.00,,---,0.01,VWS V14.00,2013-05-03 16:36:00,
2013-05-03 11:41:00,71.4,57.7,29.92,East,89,19.0,20.0,62,0.00,,---,0.01,VWS V14.00,2013-05-03 16:41:00,
2013-05-03 11:46:00,71.3,58.1,29.91,ESE,115,10.0,20.0,63,0.00,,---,0.01,VWS V14.00,2013-05-03 16:46:00,
2013-05-03 11:52:00,71.7,58.9,29.91,SE,146,12.0,18.0,64,0.00,,---,0.01,VWS V14.00,2013-05-03 16:52:00,
2013-05-03 11:57:00,71.3,57.2,29.91,ESE,107,14.0,19.0,61,0.00,,---,0.01,VWS V14.00,2013-05-03 16:57:00,
2013-05-03 12:02:00,71.3,58.5,29.91,East,86,8.0,18.0,64,0.00,,---,0.01,VWS V14.00,2013-05-03 17:02:00,
2013-05-03 12:07:00,71.3,58.1,29.90,SE,146,11.0,15.0,63,0.00,,---,0.01,VWS V14.00,2013-05-03 17:07:00,
2013-05-03 12:12:00,71.6,57.5,29.90,ENE,58,15.0,21.0,61,0.00,,---,0.01,VWS V14.00,2013-05-03 17:12:00,
2013-05-03 12:17:00,71.6,57.5,29.90,SE,143,9.0,20.0,61,0.00,,---,0.01,VWS V14.00,2013-05-03 17:17:00,
2013-05-03 12:22:00,71.8,56.7,29.90,SE,125,15.0,19.0,59,0.00,,---,0.01,VWS V14.00,2013-05-03 17:22:00,
2013-05-03 12:27:00,72.2,58.0,29.90,SE,135,15.0,19.0,61,0.00,,---,0.01,VWS V14.00,2013-05-03 17:27:00,
2013-05-03 12:32:00,72.0,56.9,29.90,East,91,16.0,21.0,59,0.00,,---,0.01,VWS V14.00,2013-05-03 17:32:00,
2013-05-03 12:37:00,72.1,58.8,29.89,SE,127,7.0,17.0,63,0.00,,---,0.01,VWS V14.00,2013-05-03 17:37:00,
2013-05-03 12:43:00,72.4,57.3,29.89,SE,146,14.0,20.0,59,0.00,,---,0.01,VWS V14.00,2013-05-03 17:43:00,
2013-05-03 12:48:00,72.0,56.0,29.89,SE,131,14.0,22.0,57,0.00,,---,0.01,VWS V14.00,2013-05-03 17:48:00,
2013-05-03 12:53:00,71.7,56.6,29.89,SE,142,12.0,21.0,59,0.00,,---,0.01,VWS V14.00,2013-05-03 17:53:00,
2013-05-03 12:58:00,71.9,57.7,29.89,SE,127,8.0,17.0,61,0.00,,---,0.01,VWS V14.00,2013-05-03 17:58:00,
2013-05-03 13:03:00,72.0,57.4,29.88,SE,132,8.0,20.0,60,0.00,,---,0.01,VWS V14.00,2013-05-03 18:03:00,
2013-05-03 13:08:00,72.0,56.9,29.88,SE,134,5.0,18.0,59,0.00,,---,0.01,VWS V14.00,2013-05-03 18:08:00,
2013-05-03 13:13:00,72.8,58.1,29.88,SE,133,11.0,19.0,60,0.00,,---,0.01,VWS V14.00,2013-05-03 18:13:00,
2013-05-03 13:18:00,73.4,58.7,29.87,ESE,116,9.0,16.0,60,0.00,,---,0.01,VWS V14.00,2013-05-03 18:18:00,
2013-05-03 13:23:00,74.2,57.5,29.87,East,99,10.0,18.0,56,0.00,,---,0.01,VWS V14.00,2013-05-03 18:23:00,
2013-05-03 13:29:00,74.5,57.8,29.87,ESE,120,12.0,16.0,56,0.00,,---,0.01,VWS V14.00,2013-05-03 18:29:00,
2013-05-03 13:34:00,75.0,57.8,29.87,East,84,12.0,18.0,55,0.00,,---,0.01,VWS V14.00,2013-05-03 18:34:00,
2013-05-03 13:39:00,74.5,57.8,29.87,ESE,113,7.0,19.0,56,0.00,,---,0.01,VWS V14.00,2013-05-03 18:39:00,
2013-05-03 13:44:00,73.7,57.0,29.87,ENE,74,13.0,23.0,56,0.00,,---,0.01,VWS V14.00,2013-05-03 18:44:00,
2013-05-03 13:49:00,73.4,57.3,29.87,East,95,12.0,18.0,57,0.00,,---,0.01,VWS V14.00,2013-05-03 18:49:00,
2013-05-03 13:54:00,73.2,57.1,29.87,SE,131,8.0,21.0,57,0.00,,---,0.01,VWS V14.00,2013-05-03 18:54:00,
2013-05-03 13:59:00,73.7,57.5,29.87,East,94,11.0,21.0,57,0.00,,---,0.01,VWS V14.00,2013-05-03 18:59:00,
2013-05-03 14:04:00,74.3,57.6,29.87,East,91,18.0,20.0,56,0.00,,---,0.01,VWS V14.00,2013-05-03 19:04:00,
2013-05-03 14:09:00,74.4,58.2,29.86,ESE,115,13.0,14.0,57,0.00,,---,0.01,VWS V14.00,2013-05-03 19:09:00,
2013-05-03 14:14:00,74.6,57.4,29.86,ESE,117,11.0,16.0,55,0.00,,---,0.01,VWS V14.00,2013-05-03 19:14:00,
2013-05-03 14:19:00,74.7,58.0,29.86,East,82,15.0,15.0,56,0.00,,---,0.01,VWS V14.00,2013-05-03 19:19:00,
2013-05-03 14:25:00,74.9,59.1,29.86,ESE,103,9.0,13.0,58,0.00,,---,0.01,VWS V14.00,2013-05-03 19:25:00,
2013-05-03 14:30:00,74.1,56.9,29.86,East,89,14.0,15.0,55,0.00,,---,0.01,VWS V14.00,2013-05-03 19:30:00,
2013-05-03 14:35:00,73.7,58.0,29.85,ESE,111,14.0,16.0,58,0.00,,---,0.01,VWS V14.00,2013-05-03 19:35:00,
2013-05-03 14:40:00,73.9,56.7,29.85,ESE,120,10.0,19.0,55,0.00,,---,0.01,VWS V14.00,2013-05-03 19:40:00,
2013-05-03 14:45:00,74.1,58.9,29.85,East,88,18.0,18.0,59,0.00,,---,0.01,VWS V14.00,2013-05-03 19:45:00,
2013-05-03 14:50:00,73.9,57.7,29.85,SE,142,11.0,17.0,57,0.00,,---,0.01,VWS V14.00,2013-05-03 19:50:00,
2013-05-03 14:56:00,73.6,57.9,29.84,East,98,9.0,14.0,58,0.00,,---,0.01,VWS V14.00,2013-05-03 19:56:00,
2013-05-03 15:01:00,73.7,58.0,29.84,East,95,8.0,13.0,58,0.00,,---,0.01,VWS V14.00,2013-05-03 20:01:00,
2013-05-03 15:06:00,74.1,57.9,29.84,ENE,73,13.0,20.0,57,0.00,,---,0.01,VWS V14.00,2013-05-03 20:06:00,
2013-05-03 15:11:00,73.6,57.0,29.84,ENE,64,7.0,13.0,56,0.00,,---,0.01,VWS V14.00,2013-05-03 20:11:00,
2013-05-03 15:16:00,73.1,57.9,29.84,ESE,117,16.0,16.0,59,0.00,,---,0.01,VWS V14.00,2013-05-03 20:16:00,
2013-05-03 15:21:00,73.0,56.9,29.83,ESE,106,15.0,18.0,57,0.00,,---,0.01,VWS V14.00,2013-05-03 20:21:00,
2013-05-03 15:26:00,73.1,57.5,29.83,ESE,117,15.0,17.0,58,0.00,,---,0.01,VWS V14.00,2013-05-03 20:26:00,
2013-05-03 15:31:00,73.6,57.0,29.83,SE,142,10.0,19.0,56,0.00,,---,0.01,VWS V14.00,2013-05-03 20:31:00,
2013-05-03 15:37:00,73.7,56.5,29.83,SSE,148,8.0,17.0,55,0.00,,---,0.01,VWS V14.00,2013-05-03 20:37:00,
2013-05-03 15:42:00,73.3,56.2,29.83,SSE,148,11.0,16.0,55,0.00,,---,0.01,VWS V14.00,2013-05-03 20:42:00,
2013-05-03 15:47:00,73.0,55.9,29.82,ESE,118,12.0,17.0,55,0.00,,---,0.01,VWS V14.00,2013-05-03 20:47:00,
2013-05-03 15:52:00,72.9,56.8,29.82,East,96,11.0,19.0,57,0.00,,---,0.01,VWS V14.00,2013-05-03 20:52:00,
2013-05-03 15:57:00,73.1,56.5,29.82,ENE,71,5.0,19.0,56,0.00,,---,0.01,VWS V14.00,2013-05-03 20:57:00,
2013-05-03 16:02:00,73.2,56.6,29.82,ESE,107,10.0,14.0,56,0.00,,---,0.01,VWS V14.00,2013-05-03 21:02:00,
2013-05-03 16:07:00,73.4,58.2,29.82,ESE,111,11.0,13.0,59,0.00,,---,0.01,VWS V14.00,2013-05-03 21:07:00,
2013-05-03 16:12:00,73.6,57.0,29.81,ESE,105,17.0,21.0,56,0.00,,---,0.01,VWS V14.00,2013-05-03 21:12:00,
2013-05-03 16:17:00,73.7,56.5,29.81,East,93,10.0,18.0,55,0.00,,---,0.01,VWS V14.00,2013-05-03 21:17:00,
2013-05-03 16:22:00,73.4,56.3,29.81,ESE,107,12.0,19.0,55,0.00,,---,0.01,VWS V14.00,2013-05-03 21:22:00,
2013-05-03 16:28:00,73.3,56.7,29.81,ENE,57,16.0,21.0,56,0.00,,---,0.01,VWS V14.00,2013-05-03 21:28:00,
2013-05-03 16:33:00,73.3,56.7,29.81,ESE,121,11.0,16.0,56,0.00,,---,0.01,VWS V14.00,2013-05-03 21:33:00,
2013-05-03 16:38:00,73.4,55.8,29.80,ENE,72,17.0,19.0,54,0.00,,---,0.01,VWS V14.00,2013-05-03 21:38:00,
2013-05-03 16:43:00,73.3,56.2,29.81,ESE,112,16.0,20.0,55,0.00,,---,0.01,VWS V14.00,2013-05-03 21:43:00,
2013-05-03 16:48:00,73.2,58.0,29.80,ENE,67,6.0,14.0,59,0.00,,---,0.01,VWS V14.00,2013-05-03 21:48:00,
2013-05-03 16:53:00,72.9,56.3,29.80,East,89,5.0,17.0,56,0.00,,---,0.01,VWS V14.00,2013-05-03 21:53:00,
2013-05-03 16:58:00,72.7,56.6,29.81,ESE,113,8.0,19.0,57,0.00,,---,0.01,VWS V14.00,2013-05-03 21:58:00,
2013-05-03 17:03:00,72.8,56.7,29.81,ENE,72,10.0,18.0,57,0.00,,---,0.01,VWS V14.00,2013-05-03 22:03:00,
2013-05-03 17:08:00,72.7,56.6,29.81,East,101,11.0,16.0,57,0.00,,---,0.01,VWS V14.00,2013-05-03 22:08:00,
2013-05-03 17:14:00,72.4,55.8,29.81,East,95,8.0,18.0,56,0.00,,---,0.01,VWS V14.00,2013-05-03 22:14:00,
2013-05-03 17:19:00,72.3,55.2,29.81,ESE,115,9.0,26.0,55,0.00,,---,0.01,VWS V14.00,2013-05-03 22:19:00,
2013-05-03 17:24:00,72.2,54.7,29.81,East,89,13.0,22.0,54,0.00,,---,0.01,VWS V14.00,2013-05-03 22:24:00,
2013-05-03 17:29:00,72.1,55.1,29.81,East,88,12.0,21.0,55,0.00,,---,0.01,VWS V14.00,2013-05-03 22:29:00,
2013-05-03 17:34:00,71.9,55.4,29.81,ENE,74,10.0,20.0,56,0.00,,---,0.01,VWS V14.00,2013-05-03 22:34:00,
2013-05-03 17:39:00,71.8,54.8,29.81,ESE,110,12.0,22.0,55,0.00,,---,0.01,VWS V14.00,2013-05-03 22:39:00,
2013-05-03 17:44:00,71.8,54.8,29.81,East,93,16.0,19.0,55,0.00,,---,0.01,VWS V14.00,2013-05-03 22:44:00,
2013-05-03 17:49:00,71.8,55.8,29.81,East,95,8.0,19.0,57,0.00,,---,0.01,VWS V14.00,2013-05-03 22:49:00,
2013-05-03 17:54:00,71.5,55.5,29.81,SE,139,8.0,17.0,57,0.00,,---,0.01,VWS V14.00,2013-05-03 22:54:00,
2013-05-03 18:00:00,71.3,55.8,29.81,East,88,10.0,10.0,58,0.00,,---,0.01,VWS V14.00,2013-05-03 23:00:00,
2013-05-03 18:05:00,71.2,56.2,29.81,ESE,111,18.0,18.0,59,0.00,,---,0.01,VWS V14.00,2013-05-03 23:05:00,
2013-05-03 18:10:00,69.4,56.7,29.81,East,88,18.0,19.0,64,0.00,,---,0.01,VWS V14.00,2013-05-03 23:10:00,
2013-05-03 18:15:00,68.1,57.2,29.81,SE,134,7.0,15.0,68,0.00,,---,0.01,VWS V14.00,2013-05-03 23:15:00,
2013-05-03 18:20:00,67.0,57.3,29.81,East,99,13.0,16.0,71,0.00,,---,0.01,VWS V14.00,2013-05-03 23:20:00,
2013-05-03 18:25:00,66.7,57.4,29.81,East,100,7.0,9.0,72,0.00,,---,0.01,VWS V14.00,2013-05-03 23:25:00,
2013-05-03 18:30:00,66.8,57.5,29.81,East,99,5.0,9.0,72,0.00,,---,0.01,VWS V14.00,2013-05-03 23:30:00,
2013-05-03 18:35:00,67.0,57.3,29.81,East,99,8.0,11.0,71,0.00,,---,0.01,VWS V14.00,2013-05-03 23:35:00,
2013-05-03 18:41:00,67.7,56.0,29.81,East,96,11.0,22.0,66,0.00,,---,0.01,VWS V14.00,2013-05-03 23:41:00,
2013-05-03 18:46:00,68.0,55.4,29.81,SE,142,13.0,19.0,64,0.00,,---,0.01,VWS V14.00,2013-05-03 23:46:00,
2013-05-03 18:51:00,68.2,54.7,29.82,ENE,67,12.0,26.0,62,0.00,,---,0.01,VWS V14.00,2013-05-03 23:51:00,
2013-05-03 18:56:00,68.1,54.2,29.81,East,89,18.0,29.0,61,0.00,,---,0.01,VWS V14.00,2013-05-03 23:56:00,
2013-05-03 19:01:00,68.0,54.1,29.82,NE,44,9.0,21.0,61,0.00,,---,0.01,VWS V14.00,2013-05-04 00:01:00,
2013-05-03 19:07:00,67.8,54.3,29.82,ESE,122,18.0,24.0,62,0.00,,---,0.01,VWS V14.00,2013-05-04 00:07:00,
2013-05-03 19:12:00,67.8,53.4,29.82,ESE,115,15.0,21.0,60,0.00,,---,0.01,VWS V14.00,2013-05-04 00:12:00,
2013-05-03 19:17:00,67.8,53.4,29.82,ESE,119,17.0,24.0,60,0.00,,---,0.01,VWS V14.00,2013-05-04 00:17:00,
2013-05-03 19:22:00,67.5,53.6,29.83,ESE,102,9.0,20.0,61,0.00,,---,0.01,VWS V14.00,2013-05-04 00:22:00,
2013-05-03 19:27:00,67.4,53.9,29.83,East,84,8.0,15.0,62,0.00,,---,0.01,VWS V14.00,2013-05-04 00:27:00,
2013-05-03 19:32:00,67.3,53.8,29.83,ESE,110,14.0,22.0,62,0.00,,---,0.01,VWS V14.00,2013-05-04 00:32:00,
2013-05-03 19:37:00,67.2,53.8,29.83,SSE,158,7.0,19.0,62,0.00,,---,0.01,VWS V14.00,2013-05-04 00:37:00,
2013-05-03 19:42:00,67.1,54.1,29.83,ENE,71,14.0,20.0,63,0.00,,---,0.01,VWS V14.00,2013-05-04 00:42:00,
2013-05-03 19:48:00,67.1,54.1,29.83,East,80,19.0,19.0,63,0.00,,---,0.01,VWS V14.00,2013-05-04 00:48:00,
2013-05-03 19:53:00,67.0,54.0,29.84,ENE,68,9.0,22.0,63,0.00,,---,0.01,VWS V14.00,2013-05-04 00:53:00,
2013-05-03 19:58:00,66.8,54.2,29.84,ESE,112,15.0,16.0,64,0.00,,---,0.01,VWS V14.00,2013-05-04 00:58:00,
2013-05-03 20:03:00,66.7,54.6,29.84,ESE,112,17.0,19.0,65,0.00,,---,0.01,VWS V14.00,2013-05-04 01:03:00,
2013-05-03 20:08:00,66.2,54.9,29.85,SE,134,11.0,20.0,67,0.00,,---,0.01,VWS V14.00,2013-05-04 01:08:00,
2013-05-03 20:13:00,64.5,53.3,29.86,South,191,10.0,19.0,67,0.00,,---,0.01,VWS V14.00,2013-05-04 01:13:00,
2013-05-03 20:18:00,59.9,52.3,29.87,SSW,208,13.0,15.0,76,0.00,,---,0.01,VWS V14.00,2013-05-04 01:18:00,
2013-05-03 20:23:00,56.8,51.4,29.88,SE,126,5.0,23.0,82,0.02,,---,0.03,VWS V14.00,2013-05-04 01:23:00,
2013-05-03 20:29:00,54.8,50.4,29.88,WSW,238,7.0,16.0,85,0.02,,---,0.03,VWS V14.00,2013-05-04 01:29:00,
2013-05-03 20:34:00,53.6,49.5,29.88,WSW,243,10.0,19.0,86,0.03,,---,0.04,VWS V14.00,2013-05-04 01:34:00,
2013-05-03 20:39:00,52.3,48.5,29.89,WSW,239,6.0,17.0,87,0.03,,---,0.04,VWS V14.00,2013-05-04 01:39:00,
2013-05-03 20:44:00,51.7,48.3,29.89,SSW,208,3.0,12.0,88,0.03,,---,0.04,VWS V14.00,2013-05-04 01:44:00,
2013-05-03 20:49:00,51.2,47.8,29.89,WSW,255,7.0,12.0,88,0.03,,---,0.04,VWS V14.00,2013-05-04 01:49:00,
2013-05-03 20:54:00,50.9,47.8,29.89,SW,222,3.0,11.0,89,0.03,,---,0.04,VWS V14.00,2013-05-04 01:54:00,
2013-05-03 20:59:00,50.8,48.0,29.89,SW,235,4.0,4.0,90,0.03,,---,0.04,VWS V14.00,2013-05-04 01:59:00,
2013-05-03 21:04:00,50.7,47.9,29.89,WNW,283,3.0,5.0,90,0.03,,---,0.04,VWS V14.00,2013-05-04 02:04:00,
2013-05-03 21:09:00,50.6,47.8,29.89,WSW,243,4.0,4.0,90,0.03,,---,0.04,VWS V14.00,2013-05-04 02:09:00,
2013-05-03 21:14:00,50.6,48.1,29.89,WSW,246,7.0,7.0,91,0.03,,---,0.04,VWS V14.00,2013-05-04 02:14:00,
2013-05-03 21:19:00,50.5,48.0,29.89,West,269,7.0,7.0,91,0.04,,---,0.05,VWS V14.00,2013-05-04 02:19:00,
2013-05-03 21:24:00,50.2,47.7,29.90,WSW,247,5.0,6.0,91,0.03,,---,0.06,VWS V14.00,2013-05-04 02:24:00,
2013-05-03 21:30:00,49.9,47.4,29.90,WSW,256,4.0,4.0,91,0.04,,---,0.07,VWS V14.00,2013-05-04 02:30:00,
2013-05-03 21:35:00,49.7,47.2,29.90,WSW,249,6.0,8.0,91,0.03,,---,0.07,VWS V14.00,2013-05-04 02:35:00,
2013-05-03 21:40:00,49.5,47.3,29.91,SW,235,5.0,7.0,92,0.03,,---,0.07,VWS V14.00,2013-05-04 02:40:00,
2013-05-03 21:45:00,49.4,47.2,29.91,WSW,248,3.0,3.0,92,0.03,,---,0.07,VWS V14.00,2013-05-04 02:45:00,
2013-05-03 21:50:00,49.3,47.1,29.91,SSW,205,4.0,4.0,92,0.03,,---,0.07,VWS V14.00,2013-05-04 02:50:00,
2013-05-03 21:55:00,49.1,46.9,29.91,SW,215,6.0,9.0,92,0.03,,---,0.07,VWS V14.00,2013-05-04 02:55:00,
2013-05-03 22:00:00,48.8,46.6,29.91,SW,215,8.0,14.0,92,0.03,,---,0.07,VWS V14.00,2013-05-04 03:00:00,
2013-05-03 22:05:00,48.6,46.4,29.91,WSW,241,4.0,7.0,92,0.05,,---,0.09,VWS V14.00,2013-05-04 03:05:00,
2013-05-03 22:11:00,48.2,46.0,29.91,SW,232,5.0,10.0,92,0.06,,---,0.10,VWS V14.00,2013-05-04 03:11:00,
2013-05-03 22:16:00,48.0,45.8,29.92,SW,236,5.0,10.0,92,0.06,,---,0.10,VWS V14.00,2013-05-04 03:16:00,
2013-05-03 22:21:00,48.0,45.8,29.93,SSW,212,16.0,16.0,92,0.05,,---,0.10,VWS V14.00,2013-05-04 03:21:00,
2013-05-03 22:26:00,47.5,45.3,29.92,SW,217,9.0,13.0,92,0.04,,---,0.10,VWS V14.00,2013-05-04 03:26:00,
2013-05-03 22:31:00,47.2,45.0,29.92,SSW,210,6.0,11.0,92,0.03,,---,0.10,VWS V14.00,2013-05-04 03:31:00,
2013-05-03 22:36:00,47.1,44.9,29.92,SW,228,6.0,9.0,92,0.03,,---,0.10,VWS V14.00,2013-05-04 03:36:00,
2013-05-03 22:41:00,46.9,44.7,29.93,WSW,238,7.0,12.0,92,0.03,,---,0.10,VWS V14.00,2013-05-04 03:41:00,
2013-05-03 22:46:00,46.7,44.5,29.92,SW,236,7.0,10.0,92,0.03,,---,0.10,VWS V14.00,2013-05-04 03:46:00,
2013-05-03 22:51:00,46.6,44.4,29.92,WSW,255,4.0,9.0,92,0.03,,---,0.10,VWS V14.00,2013-05-04 03:51:00,
2013-05-03 22:57:00,46.4,44.2,29.93,WSW,240,4.0,8.0,92,0.04,,---,0.11,VWS V14.00,2013-05-04 03:57:00,
2013-05-03 23:01:00,46.3,44.1,29.93,SW,224,4.0,10.0,92,0.04,,---,0.11,VWS V14.00,2013-05-04 04:01:00,
2013-05-03 23:02:00,46.3,44.1,29.93,SSW,209,5.0,10.0,92,0.04,,---,0.11,VWS V14.00,2013-05-04 04:02:00,
2013-05-03 23:05:00,46.1,43.9,29.93,WSW,245,4.0,7.0,92,0.03,,---,0.11,VWS V14.00,2013-05-04 04:05:00,
2013-05-03 23:10:00,46.0,43.8,29.94,WSW,256,4.0,9.0,92,0.01,,---,0.11,VWS V14.00,2013-05-04 04:10:00,
2013-05-03 23:15:00,45.8,43.6,29.94,SW,219,6.0,8.0,92,0.01,,---,0.11,VWS V14.00,2013-05-04 04:15:00,
2013-05-03 23:20:00,45.7,43.5,29.94,WSW,237,6.0,10.0,92,0.01,,---,0.11,VWS V14.00,2013-05-04 04:20:00,
2013-05-03 23:25:00,45.5,43.3,29.94,SW,225,5.0,9.0,92,0.02,,---,0.12,VWS V14.00,2013-05-04 04:25:00,
2013-05-03 23:30:00,45.3,43.1,29.94,SSW,197,5.0,7.0,92,0.02,,---,0.12,VWS V14.00,2013-05-04 04:30:00,
2013-05-03 23:35:00,45.3,43.1,29.94,WSW,243,4.0,6.0,92,0.02,,---,0.12,VWS V14.00,2013-05-04 04:35:00,
2013-05-03 23:40:00,45.2,43.3,29.94,SW,219,7.0,8.0,93,0.02,,---,0.12,VWS V14.00,2013-05-04 04:40:00,
2013-05-03 23:45:00,45.2,43.0,29.93,South,186,2.0,4.0,92,0.02,,---,0.12,VWS V14.00,2013-05-04 04:45:00,
2013-05-03 23:51:00,45.0,42.8,29.92,WSW,249,2.0,4.0,92,0.02,,---,0.12,VWS V14.00,2013-05-04 04:51:00,
2013-05-03 23:56:00,44.9,42.7,29.92,WSW,246,4.0,4.0,92,0.03,,---,0.13,VWS V14.00,2013-05-04 04:56:00,